| Date | Time | Temp. (oF) | Dew Point (oF) | Rel. Hum. (%) | Press. (in.) | Wind Dir. | Wind Speed (mph) | Hourly Rainfall (in.) |
|
|---|---|---|---|---|---|---|---|---|---|
| 1 | 02/17 | 00:00 | 41 | 41 | 100 | 30.03 | S | 0 | 0.00 |
| 2 | 02/16 | 23:00 | 41 | 41 | 100 | 30.03 | S | 3 | 0.00 |
| 3 | 02/16 | 22:00 | 41 | 41 | 100 | 30.04 | SSW | 1 | 0.00 |
| 4 | 02/16 | 21:00 | 41 | 41 | 100 | 30.05 | S | 4 | 0.00 |
| 5 | 02/16 | 20:00 | 41 | 41 | 100 | 30.06 | ESE | 1 | 0.00 |
| 6 | 02/16 | 19:00 | 40 | 40 | 100 | 30.08 | SSE | 1 | 0.00 |
| 7 | 02/16 | 18:00 | 40 | 40 | 100 | 30.06 | S | 3 | 0.00 |
| 8 | 02/16 | 17:00 | 41 | 41 | 100 | 30.08 | WSW | 2 | 0.00 |
| 9 | 02/16 | 16:00 | 40 | 40 | 100 | 30.07 | SSE | 3 | 0.03 |
| 10 | 02/16 | 15:00 | 39 | 39 | 100 | 30.11 | SSE | 5 | 0.04 |
| 11 | 02/16 | 14:00 | 39 | 39 | 100 | 30.14 | S | 4 | 0.00 |
| 12 | 02/16 | 13:00 | 39 | 39 | 100 | 30.15 | SSW | 4 | 0.01 |
| 13 | 02/16 | 12:00 | 39 | 38 | 98 | 30.19 | SE | 2 | 0.00 |
| 14 | 02/16 | 11:00 | 37 | 36 | 100 | 30.24 | SSW | 3 | 0.00 |
| 15 | 02/16 | 10:00 | 36 | 35 | 99 | 30.27 | E | 2 | 0.00 |
| 16 | 02/16 | 09:00 | 35 | 34 | 97 | 30.28 | S | 2 | 0.00 |
| 17 | 02/16 | 08:00 | 33 | 32 | 100 | 30.27 | S | 1 | 0.00 |
| 18 | 02/16 | 07:00 | 32 | 32 | 100 | 30.26 | NE | 0 | 0.00 |
| 19 | 02/16 | 06:00 | 30 | 30 | 100 | 30.27 | E | 3 | 0.00 |
| 20 | 02/16 | 05:00 | 29 | 28 | 100 | 30.29 | WSW | 1 | 0.00 |
| 21 | 02/16 | 04:00 | 29 | 28 | 100 | 30.28 | ESE | 0 | 0.00 |
| 22 | 02/16 | 03:00 | 28 | 27 | 100 | 30.29 | E | 0 | 0.00 |
| 23 | 02/16 | 02:00 | 27 | 27 | 100 | 30.29 | NE | 0 | 0.00 |
| 24 | 02/16 | 01:00 | 28 | 27 | 100 | 30.32 | W | 0 | 0.00 |